Miscellaneous Local Product
Issued by NWS North Platte, NE

Home | Current Version | Previous Version | Graphics & Text | Print | Product List | Glossary On
Versions: 1 2 3 4 5 6 7 8 9 10 11 12 13 14 15 16 17 18 19 20 21 22 23 24 25 26 27 28 29 30 31 32 33 34 35 36 37 38 39 40 41 42 43 44 45 46 47 48 49 50
000
AXUS43 KLBF 310510
MISLBF


WESTERN AND NORTH CENTRAL NEBRASKA HOURLY WEATHER ROUNDUP
NATIONAL WEATHER SERVICE NORTH PLATTE NE
1200 AM CDT TUE MAY 31 2016

NOTE: "FAIR" INDICATES FEW OR NO CLOUDS BELOW 12,000 FEET WITH NO
SIGNIFICANT WEATHER AND/OR OBSTRUCTIONS TO VISIBILITY.

NOTE: STATIONS NOT REPORTING VARIABLES SUCH AS SKY/WEATHER OR
PRESSURE ARE PROVIDED BY RAWS AND APRS NETWORKS AND ARE NOT UNDER
NATIONAL WEATHER SERVICE QUALITY CONTROL.

...OBSERVATIONS IN AND NEAR THE EASTERN PANHANDLE OF NEBRASKA...

CITY           SKY/WX    TMP DP  RH WIND       PRES   REMARKS
PINE RIDGE     PTCLDY    52  48  86 CALM      30.06R
CHADRON        MOCLDY    52  48  86 SE5       30.09R
ALLIANCE       LGT RAIN  53  49  86 NE12      30.06R
SIDNEY         LGT RAIN  56  48  74 N23G31    30.05R
CRESCENT LAKE    N/A     58  46  65 NE17G28     N/A
BIG SPRINGS      N/A     57  54  91 SW3         N/A
$$

...OBSERVATIONS IN NORTHERN NEBRASKA AND FAR SOUTHERN SOUTH DAKOTA...

CITY           SKY/WX    TMP DP  RH WIND       PRES   REMARKS
WINNER         FAIR      59  53  80 W10       29.92R
VALENTINE      CLOUDY    58  52  80 NW7       29.98R
THEDFORD       CLOUDY    61  55  81 N7        29.99R
AINSWORTH      CLOUDY    60  54  82 W7        29.97S
O`NEILL        RAIN      61  58  91 W17G23    29.89F
ORD            LGT RAIN  63  55  75 CALM      29.90F
BROKEN BOW     LGT RAIN  62  53  72 E10       29.86F
BUTTE            N/A     59  54  84 W12G18      N/A
CHAMBERS         N/A     62  57  83 W6          N/A
EWING            N/A     61  57  87 W7          N/A
$$

...OBSERVATIONS IN SOUTHWEST NEBRASKA AND FAR NORTHEAST COLORADO...

CITY           SKY/WX    TMP DP  RH WIND       PRES   REMARKS
WRAY           FAIR      59  52  77 S6        29.99R
HOLYOKE        FAIR      61  50  67 NW7       29.98R
IMPERIAL       CLOUDY    57  53  86 CALM      29.97R
OGALLALA       PTCLDY    59  52  77 N14       29.98R
NORTH PLATTE   CLOUDY    58  53  84 CALM      29.96R
MCCOOK         CLOUDY    60  54  80 SW3       29.93R
LEXINGTON      CLOUDY    59  54  82 E5        29.89F
PAXTON           N/A     60  53  79 CALM        N/A
STAPLETON        N/A     59  53  82 CALM        N/A
GOTHENBURG       N/A     60  51  71 NE6         N/A
CALLAWAY         N/A     59  54  84 SE12        N/A
$$

...OBSERVATIONS IN CENTRAL LINCOLN COUNTY AREA...

CITY           SKY/WX    TMP DP  RH WIND       PRES   REMARKS
N.P. AIRPORT   CLOUDY    58  53  84 CALM      29.96R
N.P. DOWNTOWN    N/A     60  54  81 CALM        N/A
N.P. SOUTHEAST   N/A     60  54  81 CALM        N/A
N.P. HILLCREST   N/A     61  53  75 N3          N/A
$$

...SOME OBSERVATIONS FROM AROUND THE REGION...

CITY           SKY/WX    TMP DP  RH WIND       PRES   REMARKS
DENVER         CLOUDY    56  43  61 SW9       30.05S
LARAMIE        CLEAR     45  39  79 NE7       30.13R
CHEYENNE       CLOUDY    49  44  83 N15       30.13R
SCOTTSBLUFF    CLOUDY    55  46  71 NW6       30.10R
RAPID CITY     CLEAR     51  42  71 NW17      30.04R
BISMARCK       CLOUDY    56  54  93 NW9       29.82F
PIERRE         CLOUDY    58  54  86 W15       29.87S
SIOUX FALLS    CLOUDY    69  59  70 S12G25    29.78R THUNDER
OMAHA          CLOUDY    68  62  81 S14       29.90F
GRAND ISLAND   LGT RAIN  61  58  90 NW14      29.92F
KANSAS CITY    CLEAR     62  58  86 S8        29.96F
WICHITA        MOCLDY    67  61  81 SE15      29.94S
OKLAHOMA CITY  CLOUDY    69  67  93 SE9       29.92F
DALLAS         MOCLDY    76  65  68 SE3       29.91S
AMARILLO       CLOUDY    67  63  87 SE15      29.94F
DODGE CITY     MOCLDY    67  58  72 VRB7      29.93R
HAYS           CLOUDY    61  50  67 N12       29.99R THUNDER
GOODLAND       CLOUDY    53  51  93 CALM      29.97F
$$




USA.gov is the U.S. government's official web portal to all federal, state and local government web resources and services.